WXPETECO Weather Reports


time (UTC)temp
F
wind
direction
speed
knots
gust
knots
rain 1hr
in
rain 24hr
in
rain mn
in
humidity
%
barometer
mb
20260504231554 49 154 0.9 3.5 0.00 0.03 0.03 62 1006.3
20260504230112 50 157 0.9 6.1 0.00 0.03 0.03 59 1006.1
20260504224607 51 132 1.7 7.8 0.00 0.03 0.03 55 1005.9
20260504223052 51 147 1.7 7.8 0.00 0.03 0.03 52 1005.2
20260504221551 52 131 1.7 7.0 0.00 0.03 0.03 51 1005.0
20260504220057 54 106 2.6 7.0 0.00 0.03 0.03 46 1004.8
20260504214550 55 155 0.9 9.6 0.00 0.03 0.03 46 1004.7
20260504213047 55 119 1.7 5.2 0.00 0.03 0.03 50 1004.6
20260504211544 53 154 1.7 8.7 0.00 0.03 0.03 54 1004.8
20260504210056 51 119 0.9 3.5 0.00 0.03 0.03 60 1005.0
20260504204548 50 169 0.0 0.9 0.00 0.03 0.03 68 1005.4
20260504203044 50 132 0.9 4.3 0.01 0.03 0.03 56 1005.7
20260504201546 49 13 0.9 4.3 0.02 0.03 0.03 64 1005.5
20260504200050 47 286 0.0 0.9 0.03 0.03 0.03 75 1005.7
20260504194538 48 300 1.7 6.1 0.03 0.03 0.03 79 1006.0
20260504193041 49 252 0.0 0.0 0.02 0.02 0.02 73 1006.1
20260504191537 49 252 0.0 1.7 0.01 0.01 0.01 68 1006.2
20260504190034 50 227 0.0 2.6 0.00 0.00 0.00 58 1006.0
20260504184537 49 228 0.0 0.9 0.00 0.00 0.00 62 1006.0
20260504183036 50 306 0.9 5.2 0.00 0.00 0.00 59 1006.2
20260504181531 52 303 3.5 17.4 0.00 0.00 0.00 43 1006.7
20260504180028 56 284 4.3 13.0 0.00 0.00 0.00 37 1006.2
20260504174527 56 265 2.6 7.0 0.00 0.00 0.00 37 1006.1
20260504173025 55 223 1.7 10.4 0.00 0.00 0.00 37 1006.3
20260504171523 54 246 0.9 11.3 0.00 0.00 0.00 38 1006.5
20260504081503 36 313 0.0 2.6 0.00 0.00 0.00 43 1008.0
20260504044537 41 319 0.0 1.7 0.00 0.00 0.00 40 1009.2
20260504043049 42 34 0.0 0.9 0.00 0.00 0.00 40 1009.2
20260504041537 43 318 0.0 1.7 0.00 0.00 0.00 40 1009.1
20260504040039 44 315 0.0 0.9 0.00 0.00 0.00 40 1009.0
20260504034545 44 314 0.0 1.7 0.00 0.00 0.00 40 1008.9
20260504033035 45 312 0.9 2.6 0.00 0.00 0.00 40 1008.9
20260504031544 46 311 0.0 1.7 0.00 0.00 0.00 39 1008.8
20260504030041 47 311 0.0 0.9 0.00 0.00 0.00 39 1008.8
20260504024536 49 311 0.0 0.0 0.00 0.00 0.00 38 1008.5
20260504023033 50 311 0.0 1.7 0.00 0.00 0.00 36 1008.4
20260504021541 52 302 0.0 3.5 0.00 0.00 0.00 35 1008.3
20260504020037 54 214 0.0 0.0 0.00 0.00 0.00 34 1008.2
20260504014532 54 214 0.0 0.0 0.00 0.00 0.00 32 1008.0
20260504013035 55 214 0.0 2.6 0.00 0.00 0.00 31 1008.0
20260504011530 55 302 0.0 1.7 0.00 0.00 0.00 32 1008.2
20260504010029 55 179 1.7 5.2 0.00 0.00 0.00 31 1008.1
20260504004539 55 262 3.5 9.6 0.00 0.00 0.00 31 1008.4
20260504003028 56 305 4.3 12.2 0.00 0.00 0.00 30 1008.4
20260504001533 56 307 3.5 17.4 0.00 0.00 0.00 31 1008.7
20260504000026 58 315 2.6 15.6 0.00 0.00 0.00 30 1008.7
20260503234527 60 248 1.7 7.8 0.00 0.00 0.00 26 1008.5